Time,TemperatureF,DewpointF,PressureIn,WindDirection,WindDirectionDegrees,WindSpeedMPH,WindSpeedGustMPH,Humidity,HourlyPrecipIn,Conditions,Clouds,dailyrainin,SoftwareType,DateUTC
2013-06-12 00:02:00,59.4,51.8,29.82,North,353,0.0,0.0,76,-99.99,,,-99.99,perl,2013-06-12 04:02:00,
2013-06-12 00:03:00,59.4,51.8,29.82,North,353,0.0,0.0,76,-99.99,,,-99.99,perl,2013-06-12 04:03:00,
2013-06-12 00:04:00,59.4,51.8,29.82,North,353,0.0,0.0,76,-99.99,,,-99.99,perl,2013-06-12 04:04:00,
2013-06-12 00:06:00,59.4,51.8,29.82,North,351,0.0,0.0,76,-99.99,,,-99.99,perl,2013-06-12 04:06:00,
2013-06-12 00:11:00,59.4,51.8,29.82,NNW,346,0.0,0.0,76,-99.99,,,-99.99,perl,2013-06-12 04:11:00,
2013-06-12 00:16:00,59.4,51.8,29.82,NNW,346,0.0,0.0,76,-99.99,,,-99.99,perl,2013-06-12 04:16:00,
2013-06-12 00:22:00,59.4,51.8,29.82,NNW,346,0.0,0.0,76,-99.99,,,-99.99,perl,2013-06-12 04:22:00,
2013-06-12 00:27:00,59.4,51.8,29.82,NNW,346,0.0,0.0,76,-99.99,,,-99.99,perl,2013-06-12 04:27:00,
2013-06-12 00:32:00,59.4,51.8,29.82,NNW,346,0.0,0.0,76,-99.99,,,-99.99,perl,2013-06-12 04:32:00,
2013-06-12 00:37:00,59.4,51.8,29.82,NNW,346,0.0,0.0,76,-99.99,,,-99.99,perl,2013-06-12 04:37:00,
2013-06-12 00:43:00,59.4,51.8,29.82,NNW,346,0.0,0.0,76,-99.99,,,-99.99,perl,2013-06-12 04:43:00,
2013-06-12 00:48:00,59.4,51.8,29.82,NNW,346,0.0,0.0,76,-99.99,,,-99.99,perl,2013-06-12 04:48:00,
2013-06-12 00:53:00,59.4,51.8,29.82,NNW,346,0.0,0.0,76,-99.99,,,-99.99,perl,2013-06-12 04:53:00,
2013-06-12 00:59:00,59.4,51.8,29.82,NNW,346,0.0,0.0,76,-99.99,,,-99.99,perl,2013-06-12 04:59:00,
2013-06-12 01:04:00,59.4,51.8,29.82,North,350,0.0,0.0,76,-99.99,,,-99.99,perl,2013-06-12 05:04:00,
2013-06-12 01:09:00,59.4,51.8,29.82,West,260,0.0,0.0,76,-99.99,,,-99.99,perl,2013-06-12 05:09:00,
2013-06-12 01:14:00,59.5,51.8,29.82,North,357,0.0,0.0,76,-99.99,,,-99.99,perl,2013-06-12 05:14:00,
2013-06-12 01:19:00,59.5,53.6,29.82,North,357,0.0,0.0,81,-99.99,,,-99.99,perl,2013-06-12 05:19:00,
2013-06-12 01:24:00,59.5,53.6,29.82,NNW,346,0.0,0.0,81,-99.99,,,-99.99,perl,2013-06-12 05:24:00,
2013-06-12 01:29:00,59.5,53.6,29.82,NNW,342,0.0,0.0,81,-99.99,,,-99.99,perl,2013-06-12 05:29:00,
2013-06-12 01:34:00,59.4,53.6,29.82,NNW,342,0.0,0.0,81,-99.99,,,-99.99,perl,2013-06-12 05:34:00,
2013-06-12 01:39:00,59.4,53.6,29.82,NNW,342,0.0,0.0,81,-99.99,,,-99.99,perl,2013-06-12 05:39:00,
2013-06-12 01:44:00,59.4,53.6,29.82,NNW,342,0.0,0.0,81,-99.99,,,-99.99,perl,2013-06-12 05:44:00,
2013-06-12 01:49:00,59.2,53.6,29.82,NNW,342,0.0,0.0,82,-99.99,,,-99.99,perl,2013-06-12 05:49:00,
2013-06-12 01:54:00,59.2,53.6,29.82,NNW,342,0.0,0.0,82,-99.99,,,-99.99,perl,2013-06-12 05:54:00,
2013-06-12 01:59:00,59.0,53.6,29.82,NNW,342,0.0,0.0,82,-99.99,,,-99.99,perl,2013-06-12 05:59:00,
2013-06-12 02:05:00,58.8,53.6,29.82,NNW,342,0.0,0.0,83,-99.99,,,-99.99,perl,2013-06-12 06:05:00,
2013-06-12 02:11:00,58.5,53.6,29.82,NNW,342,0.0,0.0,84,-99.99,,,-99.99,perl,2013-06-12 06:11:00,
2013-06-12 02:16:00,58.5,53.6,29.82,NNW,342,0.0,0.0,84,-99.99,,,-99.99,perl,2013-06-12 06:16:00,
2013-06-12 02:21:00,58.3,53.6,29.82,NNW,342,0.0,0.0,84,-99.99,,,-99.99,perl,2013-06-12 06:21:00,
2013-06-12 02:26:00,58.1,53.6,29.82,NNW,342,0.0,0.0,85,-99.99,,,-99.99,perl,2013-06-12 06:26:00,
2013-06-12 02:31:00,57.9,51.8,29.82,NW,322,0.0,0.0,80,-99.99,,,-99.99,perl,2013-06-12 06:31:00,
2013-06-12 02:37:00,57.6,53.6,29.82,WNW,293,0.0,0.0,87,-99.99,,,-99.99,perl,2013-06-12 06:37:00,
2013-06-12 02:42:00,57.4,53.6,29.82,WNW,301,0.0,0.0,87,-99.99,,,-99.99,perl,2013-06-12 06:42:00,
2013-06-12 02:47:00,57.2,53.6,29.82,WNW,299,0.0,0.0,88,-99.99,,,-99.99,perl,2013-06-12 06:47:00,
2013-06-12 02:52:00,57.0,53.6,29.82,WNW,299,0.0,0.0,89,-99.99,,,-99.99,perl,2013-06-12 06:52:00,
2013-06-12 02:58:00,56.8,53.6,29.82,WNW,300,0.0,0.0,89,-99.99,,,-99.99,perl,2013-06-12 06:58:00,
2013-06-12 03:03:00,56.7,53.6,29.82,WNW,299,0.0,0.0,89,-99.99,,,-99.99,perl,2013-06-12 07:03:00,
2013-06-12 03:08:00,56.7,53.6,29.82,WNW,299,0.0,0.0,89,-99.99,,,-99.99,perl,2013-06-12 07:08:00,
2013-06-12 03:14:00,56.5,53.6,29.82,WNW,299,0.0,0.0,90,-99.99,,,-99.99,perl,2013-06-12 07:14:00,
2013-06-12 03:19:00,56.3,53.6,29.82,WNW,300,0.0,0.0,91,-99.99,,,-99.99,perl,2013-06-12 07:19:00,
2013-06-12 03:24:00,56.3,53.6,29.82,WNW,299,0.0,0.0,91,-99.99,,,-99.99,perl,2013-06-12 07:24:00,
2013-06-12 03:29:00,56.1,51.8,29.82,WNW,300,0.0,0.0,85,-99.99,,,-99.99,perl,2013-06-12 07:29:00,
2013-06-12 03:34:00,56.1,51.8,29.82,WNW,300,0.0,0.0,85,-99.99,,,-99.99,perl,2013-06-12 07:34:00,
2013-06-12 03:39:00,55.8,51.8,29.82,WNW,299,0.0,0.0,86,-99.99,,,-99.99,perl,2013-06-12 07:39:00,
2013-06-12 03:44:00,55.6,51.8,29.82,WNW,300,0.0,0.0,87,-99.99,,,-99.99,perl,2013-06-12 07:44:00,
2013-06-12 03:49:00,55.6,51.8,29.82,WNW,300,0.0,0.0,87,-99.99,,,-99.99,perl,2013-06-12 07:49:00,
2013-06-12 03:54:00,55.4,53.6,29.82,WNW,299,0.0,0.0,94,-99.99,,,-99.99,perl,2013-06-12 07:54:00,
2013-06-12 03:59:00,55.4,53.6,29.82,WNW,300,0.0,0.0,94,-99.99,,,-99.99,perl,2013-06-12 07:59:00,
2013-06-12 04:04:00,55.4,53.6,29.82,WNW,300,0.0,0.0,94,-99.99,,,-99.99,perl,2013-06-12 08:04:00,
2013-06-12 04:10:00,55.2,53.6,29.82,WNW,299,0.0,0.0,95,-99.99,,,-99.99,perl,2013-06-12 08:10:00,
2013-06-12 04:15:00,55.0,53.6,29.85,West,279,0.0,0.0,96,-99.99,,,-99.99,perl,2013-06-12 08:15:00,
2013-06-12 04:20:00,55.0,53.6,29.85,West,278,0.0,0.0,96,-99.99,,,-99.99,perl,2013-06-12 08:20:00,
2013-06-12 04:25:00,55.0,53.6,29.85,West,278,0.0,0.0,96,-99.99,,,-99.99,perl,2013-06-12 08:25:00,
2013-06-12 04:30:00,55.0,53.6,29.85,West,278,0.0,0.0,96,-99.99,,,-99.99,perl,2013-06-12 08:30:00,
2013-06-12 04:35:00,54.9,53.6,29.85,West,278,0.0,0.0,96,-99.99,,,-99.99,perl,2013-06-12 08:35:00,
2013-06-12 04:41:00,54.9,53.6,29.85,West,277,0.0,0.0,96,-99.99,,,-99.99,perl,2013-06-12 08:41:00,
2013-06-12 04:46:00,54.9,53.6,29.85,West,277,0.0,0.0,96,-99.99,,,-99.99,perl,2013-06-12 08:46:00,
2013-06-12 04:51:00,54.9,53.6,29.85,West,277,0.0,0.0,96,-99.99,,,-99.99,perl,2013-06-12 08:51:00,
2013-06-12 04:56:00,54.9,53.6,29.85,West,277,0.0,0.0,96,-99.99,,,-99.99,perl,2013-06-12 08:56:00,
2013-06-12 05:01:00,54.9,53.6,29.85,West,278,0.0,0.0,96,-99.99,,,-99.99,perl,2013-06-12 09:01:00,
2013-06-12 05:06:00,54.9,53.6,29.85,West,277,0.0,0.0,96,-99.99,,,-99.99,perl,2013-06-12 09:06:00,
2013-06-12 05:11:00,54.9,53.6,29.85,West,277,0.0,0.0,96,-99.99,,,-99.99,perl,2013-06-12 09:11:00,
2013-06-12 05:16:00,54.9,53.6,29.85,West,277,0.0,0.0,96,-99.99,,,-99.99,perl,2013-06-12 09:16:00,
2013-06-12 05:21:00,54.5,53.6,29.85,West,277,0.0,0.0,97,-99.99,,,-99.99,perl,2013-06-12 09:21:00,
2013-06-12 05:27:00,54.3,51.8,29.85,West,277,0.0,0.0,91,-99.99,,,-99.99,perl,2013-06-12 09:27:00,
2013-06-12 05:34:00,54.0,51.8,29.85,West,278,0.0,0.0,92,-99.99,,,-99.99,perl,2013-06-12 09:34:00,
2013-06-12 05:39:00,54.0,51.8,29.85,West,277,0.0,0.0,92,-99.99,,,-99.99,perl,2013-06-12 09:39:00,
2013-06-12 05:45:00,53.8,51.8,29.85,West,278,0.0,0.0,92,-99.99,,,-99.99,perl,2013-06-12 09:45:00,
2013-06-12 05:50:00,53.6,51.8,29.85,West,278,0.0,0.0,93,-99.99,,,-99.99,perl,2013-06-12 09:50:00,
2013-06-12 05:55:00,53.6,51.8,29.85,West,277,0.0,0.0,93,-99.99,,,-99.99,perl,2013-06-12 09:55:00,
2013-06-12 06:00:00,53.4,51.8,29.85,West,277,0.0,0.0,94,-99.99,,,-99.99,perl,2013-06-12 10:00:00,
2013-06-12 06:06:00,53.4,51.8,29.85,West,278,0.0,0.0,94,-99.99,,,-99.99,perl,2013-06-12 10:06:00,
2013-06-12 06:11:00,53.4,51.8,29.85,West,277,0.0,0.0,94,-99.99,,,-99.99,perl,2013-06-12 10:11:00,
2013-06-12 06:16:00,53.4,51.8,29.85,West,277,0.0,0.0,94,-99.99,,,-99.99,perl,2013-06-12 10:16:00,
2013-06-12 06:21:00,53.6,51.8,29.85,West,277,0.0,0.0,93,-99.99,,,-99.99,perl,2013-06-12 10:21:00,
2013-06-12 06:26:00,53.6,51.8,29.85,West,277,0.0,0.0,93,-99.99,,,-99.99,perl,2013-06-12 10:26:00,
2013-06-12 06:31:00,53.6,51.8,29.85,West,277,0.0,0.0,93,-99.99,,,-99.99,perl,2013-06-12 10:31:00,
2013-06-12 06:36:00,53.8,51.8,29.85,West,278,0.0,0.0,92,-99.99,,,-99.99,perl,2013-06-12 10:36:00,
2013-06-12 06:42:00,54.0,51.8,29.85,West,277,0.0,0.0,92,-99.99,,,-99.99,perl,2013-06-12 10:42:00,
2013-06-12 06:47:00,54.1,51.8,29.88,West,277,0.0,0.0,92,-99.99,,,-99.99,perl,2013-06-12 10:47:00,
2013-06-12 06:53:00,54.5,53.6,29.88,West,278,0.0,0.0,97,-99.99,,,-99.99,perl,2013-06-12 10:53:00,
2013-06-12 06:59:00,55.0,53.6,29.88,West,278,0.0,0.0,96,-99.99,,,-99.99,perl,2013-06-12 10:59:00,
2013-06-12 07:05:00,55.4,53.6,29.88,West,278,0.0,0.0,94,-99.99,,,-99.99,perl,2013-06-12 11:05:00,
2013-06-12 07:10:00,55.8,53.6,29.88,West,278,0.0,0.0,92,-99.99,,,-99.99,perl,2013-06-12 11:10:00,
2013-06-12 07:15:00,56.1,53.6,29.88,West,278,0.0,0.0,92,-99.99,,,-99.99,perl,2013-06-12 11:15:00,
2013-06-12 07:20:00,56.5,55.4,29.88,West,278,0.0,0.0,96,-99.99,,,-99.99,perl,2013-06-12 11:20:00,
2013-06-12 07:25:00,56.7,55.4,29.88,WNW,287,0.0,0.0,96,-99.99,,,-99.99,perl,2013-06-12 11:25:00,
2013-06-12 07:31:00,57.0,55.4,29.88,WNW,289,0.0,0.0,95,-99.99,,,-99.99,perl,2013-06-12 11:31:00,
2013-06-12 07:36:00,57.2,55.4,29.88,WNW,289,0.0,0.0,94,-99.99,,,-99.99,perl,2013-06-12 11:36:00,
2013-06-12 07:41:00,57.6,55.4,29.88,West,275,0.0,0.0,92,-99.99,,,-99.99,perl,2013-06-12 11:41:00,
2013-06-12 07:46:00,57.9,55.4,29.91,West,275,0.0,0.0,92,-99.99,,,-99.99,perl,2013-06-12 11:46:00,
2013-06-12 07:51:00,58.6,57.2,29.91,West,278,0.0,0.0,96,-99.99,,,-99.99,perl,2013-06-12 11:51:00,
2013-06-12 07:57:00,59.4,57.2,29.91,West,278,0.0,0.0,93,-99.99,,,-99.99,perl,2013-06-12 11:57:00,
2013-06-12 08:02:00,60.1,59.0,29.91,West,281,0.0,0.0,96,-99.99,,,-99.99,perl,2013-06-12 12:02:00,
2013-06-12 08:08:00,61.0,59.0,29.91,WNW,282,0.0,0.0,93,-99.99,,,-99.99,perl,2013-06-12 12:08:00,
2013-06-12 08:13:00,61.5,59.0,29.91,WSW,241,0.0,0.0,92,-99.99,,,-99.99,perl,2013-06-12 12:13:00,
2013-06-12 08:18:00,61.7,60.8,29.91,ESE,104,0.0,0.0,97,-99.99,,,-99.99,perl,2013-06-12 12:18:00,
2013-06-12 08:23:00,61.5,59.0,29.91,ENE,78,0.0,0.0,92,-99.99,,,-99.99,perl,2013-06-12 12:23:00,
2013-06-12 08:28:00,61.3,59.0,29.91,South,179,2.0,0.0,93,-99.99,,,-99.99,perl,2013-06-12 12:28:00,
2013-06-12 08:34:00,61.7,60.8,29.91,East,96,0.0,0.0,97,-99.99,,,-99.99,perl,2013-06-12 12:34:00,
2013-06-12 08:40:00,62.2,60.8,29.91,NNE,33,0.0,0.0,96,-99.99,,,-99.99,perl,2013-06-12 12:40:00,
2013-06-12 08:45:00,62.2,60.8,29.91,NNW,343,0.0,0.0,96,-99.99,,,-99.99,perl,2013-06-12 12:45:00,
2013-06-12 08:50:00,62.8,60.8,29.91,ENE,58,0.9,4.0,93,-99.99,,,-99.99,perl,2013-06-12 12:50:00,
2013-06-12 08:56:00,63.1,60.8,29.91,ENE,66,0.0,0.0,93,-99.99,,,-99.99,perl,2013-06-12 12:56:00,
2013-06-12 09:01:00,63.1,59.0,29.91,East,96,0.0,0.0,87,-99.99,,,-99.99,perl,2013-06-12 13:01:00,
2013-06-12 09:06:00,63.3,57.2,29.91,NNW,338,0.0,0.0,81,-99.99,,,-99.99,perl,2013-06-12 13:06:00,
2013-06-12 09:11:00,63.9,59.0,29.91,East,83,0.9,4.0,84,-99.99,,,-99.99,perl,2013-06-12 13:11:00,
2013-06-12 09:16:00,64.6,59.0,29.91,ENE,66,0.0,0.0,82,-99.99,,,-99.99,perl,2013-06-12 13:16:00,
2013-06-12 09:21:00,64.8,57.2,29.91,NW,322,0.0,0.0,77,-99.99,,,-99.99,perl,2013-06-12 13:21:00,
2013-06-12 09:26:00,65.5,59.0,29.91,North,353,0.0,0.0,80,-99.99,,,-99.99,perl,2013-06-12 13:26:00,
2013-06-12 09:31:00,65.7,55.4,29.91,ESE,113,0.0,0.0,69,-99.99,,,-99.99,perl,2013-06-12 13:31:00,
2013-06-12 09:37:00,65.5,55.4,29.91,East,90,1.3,0.0,70,-99.99,,,-99.99,perl,2013-06-12 13:37:00,
2013-06-12 09:43:00,65.5,53.6,29.91,SE,131,0.0,0.0,65,-99.99,,,-99.99,perl,2013-06-12 13:43:00,
2013-06-12 09:48:00,65.5,51.8,29.91,West,266,0.0,0.0,61,-99.99,,,-99.99,perl,2013-06-12 13:48:00,
2013-06-12 09:53:00,66.0,53.6,29.91,NNW,346,0.0,0.0,65,-99.99,,,-99.99,perl,2013-06-12 13:53:00,
2013-06-12 09:58:00,66.7,53.6,29.91,ESE,106,0.0,0.0,63,-99.99,,,-99.99,perl,2013-06-12 13:58:00,
2013-06-12 10:03:00,67.1,53.6,29.91,ENE,71,0.0,0.0,62,-99.99,,,-99.99,perl,2013-06-12 14:03:00,
2013-06-12 10:08:00,66.6,50.0,29.91,ESE,121,1.1,0.0,55,-99.99,,,-99.99,perl,2013-06-12 14:08:00,
2013-06-12 10:14:00,66.7,48.2,29.91,WSW,252,0.0,0.0,52,-99.99,,,-99.99,perl,2013-06-12 14:14:00,
2013-06-12 10:19:00,66.9,48.2,29.91,ENE,62,2.7,3.6,51,-99.99,,,-99.99,perl,2013-06-12 14:19:00,
2013-06-12 10:24:00,67.3,50.0,29.91,ENE,72,0.0,0.0,54,-99.99,,,-99.99,perl,2013-06-12 14:24:00,
2013-06-12 10:29:00,67.5,50.0,29.91,East,92,0.0,0.0,54,-99.99,,,-99.99,perl,2013-06-12 14:29:00,
2013-06-12 10:35:00,67.6,48.2,29.91,ESE,106,1.3,0.0,50,-99.99,,,-99.99,perl,2013-06-12 14:35:00,
2013-06-12 10:40:00,68.2,46.4,29.91,WSW,248,0.0,0.0,46,-99.99,,,-99.99,perl,2013-06-12 14:40:00,
2013-06-12 10:45:00,68.2,46.4,29.91,ENE,70,0.0,0.0,46,-99.99,,,-99.99,perl,2013-06-12 14:45:00,
2013-06-12 10:51:00,68.4,46.4,29.91,East,88,0.0,0.0,45,-99.99,,,-99.99,perl,2013-06-12 14:51:00,
2013-06-12 10:56:00,68.7,46.4,29.91,NE,56,0.0,0.0,45,-99.99,,,-99.99,perl,2013-06-12 14:56:00,
2013-06-12 11:01:00,68.5,46.4,29.91,ENE,68,0.0,0.0,45,-99.99,,,-99.99,perl,2013-06-12 15:01:00,
2013-06-12 11:06:00,69.1,46.4,29.91,ENE,70,0.6,4.0,44,-99.99,,,-99.99,perl,2013-06-12 15:06:00,
2013-06-12 11:12:00,68.2,42.8,29.91,WNW,294,0.0,0.0,40,-99.99,,,-99.99,perl,2013-06-12 15:12:00,
2013-06-12 11:17:00,68.2,44.6,29.91,WSW,253,0.0,0.0,43,-99.99,,,-99.99,perl,2013-06-12 15:17:00,
2013-06-12 11:22:00,68.4,42.8,29.91,SW,221,0.0,0.0,39,-99.99,,,-99.99,perl,2013-06-12 15:22:00,
2013-06-12 11:27:00,68.4,42.8,29.91,West,259,3.6,4.0,39,-99.99,,,-99.99,perl,2013-06-12 15:27:00,
2013-06-12 11:32:00,68.5,44.6,29.91,NNE,15,0.0,0.0,42,-99.99,,,-99.99,perl,2013-06-12 15:32:00,
2013-06-12 11:37:00,69.1,46.4,29.91,NNW,342,0.0,0.0,44,-99.99,,,-99.99,perl,2013-06-12 15:37:00,
2013-06-12 11:42:00,69.4,44.6,29.91,NNW,334,0.0,0.0,41,-99.99,,,-99.99,perl,2013-06-12 15:42:00,
2013-06-12 11:47:00,69.3,44.6,29.91,SSW,206,0.0,0.0,41,-99.99,,,-99.99,perl,2013-06-12 15:47:00,
2013-06-12 11:52:00,69.6,46.4,29.91,North,8,0.0,0.0,44,-99.99,,,-99.99,perl,2013-06-12 15:52:00,
2013-06-12 11:57:00,70.0,42.8,29.91,SW,230,2.1,3.1,37,-99.99,,,-99.99,perl,2013-06-12 15:57:00,
2013-06-12 12:02:00,70.2,42.8,29.91,WSW,243,0.0,0.0,37,-99.99,,,-99.99,perl,2013-06-12 16:02:00,
2013-06-12 12:07:00,70.7,44.6,29.91,ESE,102,0.0,0.0,39,-99.99,,,-99.99,perl,2013-06-12 16:07:00,
2013-06-12 12:12:00,70.5,41.0,29.91,SE,136,0.0,0.0,34,-99.99,,,-99.99,perl,2013-06-12 16:12:00,
2013-06-12 12:18:00,70.3,41.0,29.91,SSE,148,0.0,0.0,35,-99.99,,,-99.99,perl,2013-06-12 16:18:00,
2013-06-12 12:23:00,70.9,42.8,29.91,ENE,66,0.0,0.0,36,-99.99,,,-99.99,perl,2013-06-12 16:23:00,
2013-06-12 12:28:00,70.9,42.8,29.91,South,181,0.0,0.0,36,-99.99,,,-99.99,perl,2013-06-12 16:28:00,
2013-06-12 12:34:00,72.0,41.0,29.91,SSE,166,0.0,0.0,33,-99.99,,,-99.99,perl,2013-06-12 16:34:00,
2013-06-12 12:39:00,71.8,41.0,29.91,West,266,0.0,0.0,33,-99.99,,,-99.99,perl,2013-06-12 16:39:00,
2013-06-12 12:45:00,72.0,41.0,29.91,SSE,157,0.0,0.0,33,-99.99,,,-99.99,perl,2013-06-12 16:45:00,
2013-06-12 12:50:00,72.9,42.8,29.91,NE,48,0.0,0.0,34,-99.99,,,-99.99,perl,2013-06-12 16:50:00,
2013-06-12 12:55:00,73.2,41.0,29.91,East,91,0.0,3.1,31,-99.99,,,-99.99,perl,2013-06-12 16:55:00,
2013-06-12 13:00:00,73.2,41.0,29.91,NNW,343,0.0,0.0,31,-99.99,,,-99.99,perl,2013-06-12 17:00:00,
2013-06-12 13:05:00,73.6,39.2,29.91,NE,55,0.0,0.0,29,-99.99,,,-99.99,perl,2013-06-12 17:05:00,
2013-06-12 13:11:00,73.9,39.2,29.91,ENE,65,0.0,0.0,29,-99.99,,,-99.99,perl,2013-06-12 17:11:00,
2013-06-12 13:16:00,73.6,39.2,29.88,East,85,3.7,4.0,29,-99.99,,,-99.99,perl,2013-06-12 17:16:00,
2013-06-12 13:21:00,72.7,39.2,29.88,East,83,0.0,0.0,30,-99.99,,,-99.99,perl,2013-06-12 17:21:00,
2013-06-12 13:26:00,72.5,39.2,29.88,ENE,59,0.0,0.0,30,-99.99,,,-99.99,perl,2013-06-12 17:26:00,
2013-06-12 13:31:00,72.3,35.6,29.88,WSW,238,2.0,0.0,26,-99.99,,,-99.99,perl,2013-06-12 17:31:00,
2013-06-12 13:36:00,72.3,37.4,29.88,NE,54,0.7,5.4,28,-99.99,,,-99.99,perl,2013-06-12 17:36:00,
2013-06-12 13:41:00,72.1,37.4,29.88,ESE,106,0.0,0.0,28,-99.99,,,-99.99,perl,2013-06-12 17:41:00,
2013-06-12 13:46:00,72.3,37.4,29.88,SE,142,2.2,4.9,28,-99.99,,,-99.99,perl,2013-06-12 17:46:00,
2013-06-12 13:51:00,72.7,41.0,29.88,ESE,120,0.0,0.0,32,-99.99,,,-99.99,perl,2013-06-12 17:51:00,
2013-06-12 13:56:00,73.2,39.2,29.88,SE,136,0.0,0.0,29,-99.99,,,-99.99,perl,2013-06-12 17:56:00,
2013-06-12 14:01:00,73.4,39.2,29.85,NE,53,0.0,0.0,29,-99.99,,,-99.99,perl,2013-06-12 18:01:00,
2013-06-12 14:06:00,73.2,37.4,29.85,WNW,289,1.5,0.0,27,-99.99,,,-99.99,perl,2013-06-12 18:06:00,
2013-06-12 14:11:00,73.2,39.2,29.85,SW,236,0.0,0.0,29,-99.99,,,-99.99,perl,2013-06-12 18:11:00,
2013-06-12 14:16:00,73.4,37.4,29.85,ESE,121,1.1,3.6,27,-99.99,,,-99.99,perl,2013-06-12 18:16:00,
2013-06-12 14:21:00,73.0,37.4,29.85,ESE,110,3.4,5.4,27,-99.99,,,-99.99,perl,2013-06-12 18:21:00,
2013-06-12 14:26:00,72.3,37.4,29.85,SE,144,0.0,0.0,28,-99.99,,,-99.99,perl,2013-06-12 18:26:00,
2013-06-12 14:31:00,72.9,39.2,29.85,East,87,1.8,6.3,30,-99.99,,,-99.99,perl,2013-06-12 18:31:00,
2013-06-12 14:36:00,73.0,37.4,29.85,East,95,2.0,0.0,27,-99.99,,,-99.99,perl,2013-06-12 18:36:00,
2013-06-12 14:41:00,72.9,37.4,29.85,ESE,112,0.0,0.0,27,-99.99,,,-99.99,perl,2013-06-12 18:41:00,
2013-06-12 14:46:00,73.2,37.4,29.85,West,274,0.0,0.0,27,-99.99,,,-99.99,perl,2013-06-12 18:46:00,
2013-06-12 14:51:00,73.6,37.4,29.85,WSW,253,0.0,3.1,27,-99.99,,,-99.99,perl,2013-06-12 18:51:00,
2013-06-12 14:56:00,73.4,37.4,29.85,WSW,237,0.0,0.0,27,-99.99,,,-99.99,perl,2013-06-12 18:56:00,
2013-06-12 15:02:00,73.2,37.4,29.85,ESE,123,0.0,0.0,27,-99.99,,,-99.99,perl,2013-06-12 19:02:00,
2013-06-12 15:08:00,73.4,37.4,29.85,West,279,0.0,0.0,27,-99.99,,,-99.99,perl,2013-06-12 19:08:00,
2013-06-12 15:13:00,73.9,37.4,29.85,ESE,112,1.1,4.9,27,-99.99,,,-99.99,perl,2013-06-12 19:13:00,
2013-06-12 15:19:00,74.3,39.2,29.85,SSW,192,0.0,0.0,28,-99.99,,,-99.99,perl,2013-06-12 19:19:00,
2013-06-12 15:24:00,75.0,39.2,29.85,WSW,247,0.0,0.0,28,-99.99,,,-99.99,perl,2013-06-12 19:24:00,
2013-06-12 15:29:00,75.6,39.2,29.85,WSW,244,0.0,0.0,27,-99.99,,,-99.99,perl,2013-06-12 19:29:00,
2013-06-12 15:34:00,75.9,39.2,29.85,SW,231,0.0,0.0,27,-99.99,,,-99.99,perl,2013-06-12 19:34:00,
2013-06-12 15:39:00,76.1,39.2,29.85,NE,56,0.0,2.7,27,-99.99,,,-99.99,perl,2013-06-12 19:39:00,
2013-06-12 15:44:00,75.4,37.4,29.85,SSE,147,1.1,5.4,25,-99.99,,,-99.99,perl,2013-06-12 19:44:00,
2013-06-12 15:49:00,75.4,37.4,29.85,ENE,74,0.0,0.0,25,-99.99,,,-99.99,perl,2013-06-12 19:49:00,
2013-06-12 15:55:00,75.0,37.4,29.85,ENE,61,0.0,0.0,26,-99.99,,,-99.99,perl,2013-06-12 19:55:00,
2013-06-12 16:00:00,74.8,37.4,29.85,East,91,0.7,4.5,26,-99.99,,,-99.99,perl,2013-06-12 20:00:00,
2013-06-12 16:05:00,74.5,37.4,29.85,NE,56,0.0,0.0,26,-99.99,,,-99.99,perl,2013-06-12 20:05:00,
2013-06-12 16:10:00,74.3,39.2,29.85,East,92,1.5,2.2,28,-99.99,,,-99.99,perl,2013-06-12 20:10:00,
2013-06-12 16:16:00,74.7,39.2,29.82,ENE,61,1.6,0.0,28,-99.99,,,-99.99,perl,2013-06-12 20:16:00,
2013-06-12 16:21:00,74.8,39.2,29.82,East,83,0.6,3.1,28,-99.99,,,-99.99,perl,2013-06-12 20:21:00,
2013-06-12 16:26:00,75.0,41.0,29.82,SSW,197,0.0,4.0,30,-99.99,,,-99.99,perl,2013-06-12 20:26:00,
2013-06-12 16:31:00,74.8,41.0,29.82,ENE,61,0.0,0.0,30,-99.99,,,-99.99,perl,2013-06-12 20:31:00,
2013-06-12 16:36:00,75.4,42.8,29.82,West,270,0.0,0.0,31,-99.99,,,-99.99,perl,2013-06-12 20:36:00,
2013-06-12 16:41:00,75.7,42.8,29.82,WSW,238,0.0,0.0,31,-99.99,,,-99.99,perl,2013-06-12 20:41:00,
2013-06-12 16:47:00,75.6,42.8,29.82,WSW,248,0.0,0.0,31,-99.99,,,-99.99,perl,2013-06-12 20:47:00,
2013-06-12 16:53:00,75.7,44.6,29.82,SSW,213,2.7,4.9,33,-99.99,,,-99.99,perl,2013-06-12 20:53:00,
2013-06-12 16:58:00,75.7,44.6,29.82,ESE,104,0.0,0.0,33,-99.99,,,-99.99,perl,2013-06-12 20:58:00,
2013-06-12 17:04:00,75.0,44.6,29.82,North,357,0.0,0.0,34,-99.99,,,-99.99,perl,2013-06-12 21:04:00,
2013-06-12 17:09:00,75.0,44.6,29.82,SSE,168,0.0,0.0,34,-99.99,,,-99.99,perl,2013-06-12 21:09:00,
2013-06-12 17:14:00,74.5,44.6,29.82,North,353,0.0,0.0,34,-99.99,,,-99.99,perl,2013-06-12 21:14:00,
2013-06-12 17:19:00,74.3,44.6,29.82,NNW,346,0.0,0.0,35,-99.99,,,-99.99,perl,2013-06-12 21:19:00,
2013-06-12 17:25:00,74.3,46.4,29.82,South,183,0.0,0.0,37,-99.99,,,-99.99,perl,2013-06-12 21:25:00,
2013-06-12 17:31:00,73.9,44.6,29.82,NNW,335,0.0,0.0,35,-99.99,,,-99.99,perl,2013-06-12 21:31:00,
2013-06-12 17:37:00,73.8,42.8,29.82,East,83,0.0,0.0,33,-99.99,,,-99.99,perl,2013-06-12 21:37:00,
2013-06-12 17:42:00,73.6,42.8,29.82,NNE,15,0.0,0.0,33,-99.99,,,-99.99,perl,2013-06-12 21:42:00,
2013-06-12 17:47:00,73.8,44.6,29.82,NW,314,0.0,0.0,35,-99.99,,,-99.99,perl,2013-06-12 21:47:00,
2013-06-12 17:52:00,73.9,44.6,29.82,NNW,340,0.0,0.0,35,-99.99,,,-99.99,perl,2013-06-12 21:52:00,
2013-06-12 17:57:00,73.9,44.6,29.82,South,186,0.0,0.0,35,-99.99,,,-99.99,perl,2013-06-12 21:57:00,
2013-06-12 18:02:00,74.1,44.6,29.82,North,1,0.0,0.0,35,-99.99,,,-99.99,perl,2013-06-12 22:02:00,
2013-06-12 18:07:00,73.9,42.8,29.82,WSW,237,0.0,0.0,33,-99.99,,,-99.99,perl,2013-06-12 22:07:00,
2013-06-12 18:12:00,73.6,42.8,29.82,East,83,0.0,0.0,33,-99.99,,,-99.99,perl,2013-06-12 22:12:00,
2013-06-12 18:17:00,73.2,44.6,29.82,East,85,0.0,0.0,36,-99.99,,,-99.99,perl,2013-06-12 22:17:00,
2013-06-12 18:22:00,73.0,44.6,29.82,East,85,0.0,0.0,36,-99.99,,,-99.99,perl,2013-06-12 22:22:00,
2013-06-12 18:27:00,73.2,44.6,29.82,NNE,27,0.0,0.0,36,-99.99,,,-99.99,perl,2013-06-12 22:27:00,
2013-06-12 18:32:00,73.2,44.6,29.82,NNE,27,0.0,0.0,36,-99.99,,,-99.99,perl,2013-06-12 22:32:00,
2013-06-12 18:37:00,73.4,44.6,29.82,North,11,0.0,0.0,36,-99.99,,,-99.99,perl,2013-06-12 22:37:00,
2013-06-12 18:42:00,73.0,44.6,29.82,NE,52,0.0,0.0,36,-99.99,,,-99.99,perl,2013-06-12 22:42:00,
2013-06-12 18:47:00,72.9,44.6,29.82,East,90,0.0,0.0,36,-99.99,,,-99.99,perl,2013-06-12 22:47:00,
2013-06-12 18:52:00,72.5,46.4,29.82,ENE,72,0.0,0.0,39,-99.99,,,-99.99,perl,2013-06-12 22:52:00,
2013-06-12 18:57:00,72.3,44.6,29.82,North,0,0.0,0.0,37,-99.99,,,-99.99,perl,2013-06-12 22:57:00,
2013-06-12 19:02:00,72.3,44.6,29.82,North,5,0.0,0.0,37,-99.99,,,-99.99,perl,2013-06-12 23:02:00,
2013-06-12 19:07:00,72.0,44.6,29.82,NE,47,0.0,0.0,37,-99.99,,,-99.99,perl,2013-06-12 23:07:00,
2013-06-12 19:12:00,71.8,44.6,29.82,SE,133,0.0,0.0,38,-99.99,,,-99.99,perl,2013-06-12 23:12:00,
2013-06-12 19:17:00,71.6,44.6,29.79,SE,125,0.0,0.0,38,-99.99,,,-99.99,perl,2013-06-12 23:17:00,
2013-06-12 19:22:00,71.6,46.4,29.79,SE,125,0.0,0.0,41,-99.99,,,-99.99,perl,2013-06-12 23:22:00,
2013-06-12 19:27:00,71.4,46.4,29.79,ENE,76,0.0,0.0,41,-99.99,,,-99.99,perl,2013-06-12 23:27:00,
2013-06-12 19:32:00,71.2,46.4,29.79,East,93,0.0,0.0,41,-99.99,,,-99.99,perl,2013-06-12 23:32:00,
2013-06-12 19:37:00,71.2,48.2,29.79,East,93,0.0,0.0,44,-99.99,,,-99.99,perl,2013-06-12 23:37:00,
2013-06-12 19:42:00,71.2,48.2,29.79,East,93,0.0,0.0,44,-99.99,,,-99.99,perl,2013-06-12 23:42:00,
2013-06-12 19:47:00,71.1,48.2,29.79,East,93,0.0,0.0,44,-99.99,,,-99.99,perl,2013-06-12 23:47:00,
2013-06-12 19:52:00,70.9,48.2,29.79,East,94,0.0,0.0,45,-99.99,,,-99.99,perl,2013-06-12 23:52:00,
2013-06-12 19:58:00,70.9,48.2,29.79,East,93,0.0,0.0,45,-99.99,,,-99.99,perl,2013-06-12 23:58:00,
2013-06-12 20:03:00,70.7,48.2,29.79,East,93,0.0,0.0,45,-99.99,,,-99.99,perl,2013-06-13 00:03:00,
2013-06-12 20:09:00,70.5,46.4,29.79,East,93,0.0,0.0,42,-99.99,,,-99.99,perl,2013-06-13 00:09:00,
2013-06-12 20:14:00,70.3,46.4,29.79,East,92,0.0,0.0,43,-99.99,,,-99.99,perl,2013-06-13 00:14:00,
2013-06-12 20:19:00,70.2,48.2,29.79,East,93,0.0,0.0,46,-99.99,,,-99.99,perl,2013-06-13 00:19:00,
2013-06-12 20:24:00,70.0,48.2,29.79,East,93,0.0,0.0,46,-99.99,,,-99.99,perl,2013-06-13 00:24:00,
2013-06-12 20:29:00,70.0,48.2,29.79,East,94,0.0,0.0,46,-99.99,,,-99.99,perl,2013-06-13 00:29:00,
2013-06-12 20:35:00,69.8,48.2,29.79,East,93,0.0,0.0,46,-99.99,,,-99.99,perl,2013-06-13 00:35:00,
2013-06-12 20:40:00,69.4,50.0,29.79,SE,126,0.0,0.0,50,-99.99,,,-99.99,perl,2013-06-13 00:40:00,
2013-06-12 20:45:00,69.4,50.0,29.79,SE,126,0.0,0.0,50,-99.99,,,-99.99,perl,2013-06-13 00:45:00,
2013-06-12 20:50:00,69.3,50.0,29.79,SE,126,0.0,0.0,50,-99.99,,,-99.99,perl,2013-06-13 00:50:00,
2013-06-12 20:55:00,69.3,50.0,29.79,SE,125,0.0,0.0,50,-99.99,,,-99.99,perl,2013-06-13 00:55:00,
2013-06-12 21:00:00,69.1,50.0,29.79,SE,126,0.0,0.0,51,-99.99,,,-99.99,perl,2013-06-13 01:00:00,
2013-06-12 21:05:00,69.1,50.0,29.79,SE,126,0.0,0.0,51,-99.99,,,-99.99,perl,2013-06-13 01:05:00,
2013-06-12 21:12:00,68.9,50.0,29.79,SE,126,0.0,0.0,51,-99.99,,,-99.99,perl,2013-06-13 01:12:00,
2013-06-12 21:17:00,68.7,50.0,29.79,SE,127,0.0,0.0,52,-99.99,,,-99.99,perl,2013-06-13 01:17:00,
2013-06-12 21:22:00,68.5,50.0,29.79,SE,126,0.0,0.0,52,-99.99,,,-99.99,perl,2013-06-13 01:22:00,
2013-06-12 21:27:00,68.5,50.0,29.79,SE,127,0.0,0.0,52,-99.99,,,-99.99,perl,2013-06-13 01:27:00,
2013-06-12 21:32:00,68.4,50.0,29.79,SE,126,0.0,0.0,52,-99.99,,,-99.99,perl,2013-06-13 01:32:00,
2013-06-12 21:37:00,68.4,50.0,29.79,SE,126,0.0,0.0,52,-99.99,,,-99.99,perl,2013-06-13 01:37:00,
2013-06-12 21:42:00,68.4,50.0,29.79,SE,126,0.0,0.0,52,-99.99,,,-99.99,perl,2013-06-13 01:42:00,
2013-06-12 21:47:00,68.4,50.0,29.79,ESE,114,0.0,0.0,52,-99.99,,,-99.99,perl,2013-06-13 01:47:00,
2013-06-12 21:52:00,68.4,51.8,29.79,East,97,0.0,0.0,55,-99.99,,,-99.99,perl,2013-06-13 01:52:00,
2013-06-12 21:57:00,68.4,51.8,29.79,SE,128,0.0,0.0,55,-99.99,,,-99.99,perl,2013-06-13 01:57:00,
2013-06-12 22:02:00,68.7,50.0,29.79,ESE,119,0.0,0.0,52,-99.99,,,-99.99,perl,2013-06-13 02:02:00,
2013-06-12 22:07:00,68.7,50.0,29.79,SE,134,0.0,0.0,52,-99.99,,,-99.99,perl,2013-06-13 02:07:00,
2013-06-12 22:12:00,68.9,51.8,29.79,SE,135,0.0,0.0,54,-99.99,,,-99.99,perl,2013-06-13 02:12:00,
2013-06-12 22:17:00,68.9,51.8,29.79,SE,136,0.0,0.0,54,-99.99,,,-99.99,perl,2013-06-13 02:17:00,
2013-06-12 22:22:00,68.7,50.0,29.79,ESE,118,0.0,0.0,52,-99.99,,,-99.99,perl,2013-06-13 02:22:00,
2013-06-12 22:27:00,68.5,50.0,29.79,ESE,118,0.0,0.0,52,-99.99,,,-99.99,perl,2013-06-13 02:27:00,
2013-06-12 22:32:00,68.4,50.0,29.79,ESE,118,0.0,0.0,52,-99.99,,,-99.99,perl,2013-06-13 02:32:00,
2013-06-12 22:37:00,68.2,50.0,29.79,ESE,118,0.0,0.0,52,-99.99,,,-99.99,perl,2013-06-13 02:37:00,
2013-06-12 22:42:00,68.2,50.0,29.79,ESE,119,0.0,0.0,52,-99.99,,,-99.99,perl,2013-06-13 02:42:00,
2013-06-12 22:47:00,67.8,51.8,29.76,ESE,119,0.0,0.0,57,-99.99,,,-99.99,perl,2013-06-13 02:47:00,
2013-06-12 22:53:00,67.6,51.8,29.76,ESE,119,0.0,0.0,57,-99.99,,,-99.99,perl,2013-06-13 02:53:00,
2013-06-12 22:58:00,67.3,51.8,29.76,ESE,118,0.0,0.0,57,-99.99,,,-99.99,perl,2013-06-13 02:58:00,
2013-06-12 23:03:00,67.3,53.6,29.76,ESE,107,0.0,0.0,62,-99.99,,,-99.99,perl,2013-06-13 03:03:00,
2013-06-12 23:08:00,67.3,53.6,29.76,ENE,78,0.0,0.0,62,-99.99,,,-99.99,perl,2013-06-13 03:08:00,
2013-06-12 23:13:00,67.3,53.6,29.76,ENE,78,0.0,0.0,62,-99.99,,,-99.99,perl,2013-06-13 03:13:00,
2013-06-12 23:18:00,67.3,53.6,29.76,East,79,0.0,0.0,62,-99.99,,,-99.99,perl,2013-06-13 03:18:00,
2013-06-12 23:23:00,67.3,53.6,29.76,East,82,0.0,0.0,62,-99.99,,,-99.99,perl,2013-06-13 03:23:00,
2013-06-12 23:28:00,67.3,53.6,29.76,East,92,0.0,0.0,62,-99.99,,,-99.99,perl,2013-06-13 03:28:00,
2013-06-12 23:33:00,67.1,53.6,29.76,NE,52,0.0,0.0,62,-99.99,,,-99.99,perl,2013-06-13 03:33:00,
2013-06-12 23:38:00,67.1,55.4,29.76,SE,132,0.0,0.0,67,-99.99,,,-99.99,perl,2013-06-13 03:38:00,
2013-06-12 23:43:00,67.3,55.4,29.76,SE,133,0.0,0.0,66,-99.99,,,-99.99,perl,2013-06-13 03:43:00,
2013-06-12 23:48:00,67.3,55.4,29.73,SE,134,0.0,0.0,66,-99.99,,,-99.99,perl,2013-06-13 03:48:00,
2013-06-12 23:53:00,67.1,55.4,29.73,SE,133,0.0,0.0,67,-99.99,,,-99.99,perl,2013-06-13 03:53:00,
2013-06-12 23:58:00,67.1,55.4,29.73,ENE,78,0.0,0.0,67,-99.99,,,-99.99,perl,2013-06-13 03:58:00,